FW5423 Weather Reports


Display with metric or nautical units.
time (UTC)temp
F
wind
direction
speed
MPH
gust
MPH
rain 1hr
in
rain 24hr
in
rain mn
in
humidity
%
barometer
mb
20260510221026 45 359 4.0 9.0 0.00 0.34 0.00 92 1019.6
20260510220526 45 359 4.0 10.0 0.00 0.34 0.00 91 1019.8
20260510220026 46 359 5.0 10.0 0.00 0.40 0.00 91 1019.7
20260510215525 46 359 5.0 11.0 0.00 0.40 0.00 91 1019.7
20260510215026 46 359 7.0 11.0 0.00 0.40 0.00 90 1019.5
20260510214526 46 359 7.0 10.0 0.00 0.40 0.00 90 1019.4
20260510214025 46 359 7.0 10.0 0.00 0.40 0.00 90 1019.5
20260510213525 46 359 7.0 10.0 0.00 0.40 0.00 90 1019.4
20260510213026 46 359 6.0 10.0 0.00 0.40 0.00 90 1019.4
20260510212528 46 359 8.0 11.0 0.00 0.40 0.00 90 1019.3
20260510212027 46 359 7.0 11.0 0.00 0.40 0.00 90 1019.3
20260510211525 46 359 7.0 11.0 0.00 0.40 0.00 89 1019.2
20260510211025 46 359 4.0 9.0 0.00 0.40 0.00 89 1019.3
20260510210529 46 359 4.0 11.0 0.00 0.40 0.00 89 1019.3
20260510210024 47 262 6.0 12.0 0.00 0.47 0.00 89 1019.4
20260510205524 47 359 7.0 11.0 0.00 0.47 0.00 88 1019.3
20260510205025 47 359 6.0 10.0 0.00 0.47 0.00 88 1019.2
20260510204527 47 359 5.0 8.0 0.00 0.47 0.00 87 1019.2
20260510204025 48 359 5.0 8.0 0.00 0.47 0.00 86 1019.3
20260510203524 48 359 3.0 8.0 0.00 0.47 0.00 86 1019.3
20260510203032 49 235 4.0 9.0 0.00 0.47 0.00 86 1019.3
20260510202524 49 359 7.0 10.0 0.00 0.47 0.00 85 1019.0
20260510202025 49 359 7.0 10.0 0.00 0.47 0.00 85 1018.7
20260510201522 49 359 6.0 10.0 0.00 0.47 0.00 83 1018.7
20260510201022 49 359 5.0 11.0 0.00 0.47 0.00 84 1018.7
20260510200522 50 359 8.0 13.0 0.00 0.47 0.00 82 1018.6
20260510200022 50 359 9.0 14.0 0.00 0.62 0.00 81 1018.6
20260510195521 50 359 8.0 14.0 0.00 0.62 0.00 81 1018.6
20260510195022 51 359 8.0 12.0 0.00 0.62 0.00 81 1018.5
20260510194522 51 359 7.0 12.0 0.00 0.62 0.00 81 1018.6
20260510194022 51 359 5.0 14.0 0.00 0.62 0.00 81 1018.7
20260510193522 51 359 9.0 13.0 0.00 0.62 0.00 80 1018.7
20260510193021 52 359 5.0 11.0 0.00 0.62 0.00 80 1018.7
20260510192521 51 359 6.0 11.0 0.00 0.62 0.00 80 1018.8
20260510192022 51 253 5.0 12.0 0.00 0.62 0.00 80 1018.9
20260510191522 51 359 4.0 11.0 0.00 0.62 0.00 80 1018.9
20260510191022 51 243 6.0 12.0 0.00 0.62 0.00 78 1018.8
20260510190522 52 359 5.0 13.0 0.00 0.62 0.00 78 1018.9
20260510190029 52 231 6.0 13.0 0.00 0.82 0.00 79 1018.9
20260510185522 51 359 4.0 8.0 0.00 0.82 0.00 79 1018.8
20260510185021 52 261 2.0 16.0 0.00 0.82 0.00 78 1018.7
20260510184522 52 359 8.0 16.0 0.00 0.82 0.00 77 1018.7
20260510184026 53 260 7.0 12.0 0.00 0.82 0.00 77 1018.7
20260510183522 52 258 5.0 11.0 0.00 0.82 0.00 79 1018.6
20260510183034 52 359 4.0 16.0 0.00 0.82 0.00 78 1018.6
20260510182521 52 264 8.0 16.0 0.00 0.82 0.00 78 1018.7
20260510182021 52 359 7.0 12.0 0.00 0.82 0.00 76 1018.7
20260510181520 52 190 8.0 12.0 0.00 0.82 0.00 77 1018.7
20260510181020 52 359 7.0 13.0 0.00 0.82 0.00 79 1018.8
20260510180520 52 234 5.0 13.0 0.00 0.82 0.00 79 1018.7
20260510180026 52 231 6.0 14.0 0.00 1.07 0.00 76 1018.7
20260510175519 52 236 7.0 14.0 0.00 1.07 0.00 77 1018.6
20260510175019 53 233 6.0 12.0 0.00 1.07 0.00 79 1018.6
20260510174517 52 259 6.0 17.0 0.00 1.07 0.00 79 1018.6
20260510174019 52 256 7.0 16.0 0.00 1.07 0.00 79 1018.6
20260510173517 52 260 9.0 16.0 0.00 1.07 0.00 79 1018.6
20260510173014 52 233 8.0 17.0 0.00 1.07 0.00 79 1018.7
20260510172514 52 243 9.0 17.0 0.00 1.07 0.00 80 1018.8
20260510172016 52 359 9.0 17.0 0.00 1.07 0.00 79 1018.8
20260510171513 52 251 9.0 17.0 0.00 1.07 0.00 81 1018.8
20260510171011 51 359 6.0 14.0 0.00 1.07 0.00 83 1018.8
20260510170511 51 262 9.0 16.0 0.00 1.07 0.00 82 1018.9
20260510170013 51 359 9.0 16.0 0.00 1.12 0.00 81 1018.9
20260510165508 50 359 8.0 15.0 0.00 1.12 0.00 83 1019.0
20260510165007 50 359 11.0 15.0 0.00 1.12 0.00 83 1018.9
20260510164508 50 359 6.0 16.0 0.00 1.12 0.00 86 1019.0
20260510164005 50 359 8.0 15.0 0.00 1.12 0.00 86 1019.0
20260510163504 49 359 9.0 17.0 0.00 1.12 0.00 84 1019.1
20260510163002 50 259 9.0 17.0 0.00 1.12 0.00 85 1019.2
20260510162501 50 359 7.0 16.0 0.00 1.12 0.00 86 1019.3
20260510162100 49 250 7.0 16.0 0.00 1.12 0.00 88 1019.4
20260510161059 48 359 10.0 18.0 0.00 1.12 0.00 89 1019.6
20260510160558 48 270 8.0 18.0 0.00 1.12 0.00 91 1019.4
20260510160106 48 359 11.0 19.0 0.00 1.24 0.00 90 1019.4
20260510155555 47 359 13.0 23.0 0.00 1.24 0.00 90 1019.6
20260510155057 47 359 14.0 23.0 0.00 1.24 0.00 91 1019.7
20260510154603 46 260 13.0 18.0 0.00 1.24 0.00 91 1019.9
20260510154053 46 359 12.0 17.0 0.00 1.24 0.00 93 1019.9
20260510153549 46 359 10.0 19.0 0.00 1.24 0.00 94 1020.1
20260510153051 45 359 12.0 20.0 0.00 1.24 0.00 94 1020.1
20260510152547 44 359 13.0 20.0 0.00 1.24 0.00 94 1020.3
20260510152045 45 359 14.0 19.0 0.00 1.24 0.00 94 1020.3
20260510151043 44 359 17.0 22.0 0.00 1.24 0.00 96 1020.0
20260510150541 43 359 16.0 22.0 0.00 1.24 0.00 97 1019.9
20260510150040 42 359 18.0 24.0 0.00 1.43 0.00 96 1020.0
20260510145539 42 359 15.0 24.0 0.00 1.43 0.00 97 1020.1
20260510145039 42 359 17.0 21.0 0.00 1.43 0.00 97 1020.0
20260510144538 42 359 15.0 25.0 0.00 1.43 0.00 97 1020.0
20260510144038 42 359 18.0 25.0 0.00 1.43 0.00 97 1020.0
20260510143537 42 359 15.0 24.0 0.00 1.43 0.00 97 1020.0
20260510143042 41 359 16.0 24.0 0.00 1.43 0.00 97 1020.0
20260510142539 42 359 15.0 19.0 0.00 1.43 0.00 98 1020.3
20260510142035 42 359 12.0 18.0 0.00 1.43 0.00 98 1020.1
20260510141034 41 359 13.0 20.0 0.00 1.43 0.00 98 1019.9
20260510140533 41 359 15.0 20.0 0.00 1.43 0.00 98 1020.3
20260510140033 41 270 14.0 20.0 0.00 1.54 0.00 98 1020.1
20260510135532 41 359 14.0 19.0 0.00 1.54 0.00 98 1020.2
20260510135031 41 359 12.0 19.0 0.00 1.54 0.00 98 1020.0
20260510134530 40 359 14.0 20.0 0.00 1.54 0.00 98 1020.1
20260510134028 40 359 14.0 20.0 0.00 1.54 0.00 98 1020.3
20260510133528 40 359 15.0 20.0 0.00 1.54 0.00 98 1020.2
20260510133028 40 359 12.0 20.0 0.00 1.54 0.00 98 1020.4
20260510132528 40 359 14.0 22.0 0.00 1.54 0.00 98 1020.6
20260510132027 40 359 15.0 22.0 0.00 1.54 0.00 98 1020.7
20260510131025 40 359 14.0 20.0 0.00 1.54 0.00 98 1020.8
20260510130524 40 359 11.0 20.0 0.00 1.54 0.00 98 1020.7
20260510130029 40 359 14.0 17.0 0.00 1.58 0.00 98 1020.4
20260510125521 40 359 13.0 18.0 0.00 1.58 0.00 98 1020.1
20260510125021 40 359 13.0 18.0 0.00 1.58 0.00 98 1020.1
20260510124522 40 269 13.0 18.0 0.00 1.58 0.00 98 1020.1
20260510124020 40 261 12.0 18.0 0.00 1.58 0.00 98 1020.3
20260510123521 39 359 10.0 17.0 0.00 1.58 0.00 98 1020.1
20260510123019 39 255 12.0 17.0 0.00 1.58 0.00 98 1020.3
20260510122517 39 359 11.0 18.0 0.00 1.58 0.00 98 1020.1
20260510122016 39 249 11.0 18.0 0.00 1.58 0.00 98 1020.2
20260510121016 39 359 11.0 17.0 0.00 1.58 0.00 98 1020.5
20260510120515 39 359 11.0 17.0 0.00 1.58 0.00 98 1020.5
20260510120015 39 359 10.0 18.0 0.00 1.62 0.40 98 1020.6
20260510115513 39 359 10.0 19.0 0.00 1.62 0.40 98 1020.4
20260510115012 39 250 10.0 21.0 0.00 1.62 0.40 98 1020.4
20260510114513 39 359 13.0 21.0 0.00 1.62 0.40 98 1020.2
20260510114010 39 359 8.0 16.0 0.00 1.62 0.40 98 1020.1
20260510113508 39 246 9.0 15.0 0.00 1.62 0.40 98 1020.1
20260510113013 39 234 8.0 15.0 0.00 1.62 0.40 98 1019.7
20260510112510 39 258 8.0 20.0 0.00 1.62 0.40 98 1019.8
20260510112006 39 359 10.0 20.0 0.00 1.62 0.40 98 1019.8
20260510111004 39 359 9.0 16.0 0.00 1.62 0.40 98 1019.9
20260510110507 38 254 9.0 16.0 0.00 1.62 0.40 98 1019.6
20260510110007 38 359 8.0 16.0 0.00 1.64 0.40 98 1019.6
20260510105503 38 359 9.0 18.0 0.00 1.64 0.40 98 1019.8
20260510105003 38 247 10.0 18.0 0.00 1.64 0.40 98 1019.8
20260510104501 38 223 9.0 22.0 0.00 1.64 0.40 98 1019.5
20260510104103 39 359 12.0 22.0 0.00 1.64 0.40 98 1019.4
20260510103559 39 245 14.0 21.0 0.00 1.64 0.40 98 1019.4
20260510103058 39 231 11.0 19.0 0.00 1.64 0.40 98 1019.4
20260510102557 39 239 10.0 19.0 0.00 1.64 0.40 98 1019.4
20260510102055 39 359 9.0 16.0 0.00 1.64 0.40 98 1019.6
20260510101057 39 254 8.0 24.0 0.00 1.64 0.40 98 1019.1
20260510100558 39 246 15.0 23.0 0.00 1.64 0.40 98 1018.8
20260510100058 39 255 13.0 23.0 0.00 1.64 0.40 98 1019.1
20260510095553 40 204 14.0 22.0 0.00 1.64 0.40 98 1019.2
20260510095055 40 211 9.0 19.0 0.00 1.64 0.40 98 1018.9
20260510094551 40 359 9.0 16.0 0.00 1.64 0.40 98 1018.9
20260510094053 40 359 8.0 15.0 0.00 1.64 0.40 98 1018.7
20260510093549 40 359 7.0 14.0 0.00 1.64 0.40 98 1018.6
20260510093049 40 233 7.0 14.0 0.00 1.64 0.40 98 1018.5
20260510092548 40 359 7.0 13.0 0.00 1.64 0.40 98 1018.6
20260510092052 40 235 8.0 13.0 0.00 1.64 0.40 98 1018.3
20260510091045 40 359 5.0 12.0 0.00 1.64 0.40 98 1018.2
20260510090545 40 359 5.0 13.0 0.00 1.64 0.40 98 1018.1
20260510090059 40 359 6.0 16.0 0.00 1.64 0.40 98 1017.9
20260510085544 40 246 7.0 19.0 0.00 1.64 0.40 98 1017.7
20260510085044 40 253 9.0 19.0 0.00 1.64 0.40 98 1017.8
20260510084554 40 217 8.0 17.0 0.00 1.64 0.40 98 1017.6
20260510084045 40 255 9.0 17.0 0.00 1.64 0.40 98 1017.7
20260510083545 40 359 7.0 14.0 0.01 1.64 0.40 98 1017.7
20260510083044 40 359 6.0 15.0 0.01 1.64 0.40 98 1017.7
20260510082543 40 220 7.0 15.0 0.01 1.64 0.40 98 1017.6
20260510082044 40 6.0 12.0 0.01 1.64 0.40 98 1017.7
20260510081044 40 359 7.0 16.0 0.01 1.64 0.40 98 1017.5
20260510080544 40 7.0 16.0 0.01 1.64 0.40 98 1017.6
20260510080043 40 359 6.0 19.0 0.01 1.64 0.40 98 1017.5
20260510075543 40 359 9.0 21.0 0.01 1.64 0.40 98 1017.2
20260510075043 41 359 8.0 21.0 0.01 1.64 0.40 98 1017.3
20260510074543 41 222 11.0 20.0 0.01 1.64 0.40 98 1017.4
20260510074047 41 251 11.0 20.0 0.01 1.64 0.40 98 1017.3
20260510073542 41 359 13.0 20.0 0.01 1.64 0.40 98 1017.4
20260510073043 41 359 13.0 22.0 0.00 1.63 0.39 98 1017.6
20260510072542 41 255 12.0 23.0 0.00 1.63 0.39 98 1017.4
20260510072043 41 246 14.0 23.0 0.00 1.63 0.39 98 1017.5
20260510071041 41 359 12.0 20.0 0.00 1.63 0.39 98 1017.4
20260510070540 41 233 14.0 23.0 0.00 1.63 0.39 98 1017.4
20260510070045 41 287 14.0 23.0 0.00 1.63 0.39 98 1017.4
20260510065540 41 359 13.0 21.0 0.00 1.63 0.39 98 1017.4
20260510065039 41 235 13.0 20.0 0.00 1.63 0.39 98 1017.2
20260510064557 41 254 12.0 20.0 0.00 1.63 0.39 98 1017.1
20260510064038 41 359 11.0 21.0 0.00 1.63 0.39 98 1017.2
20260510063538 41 347 13.0 21.0 0.00 1.63 0.39 98 1017.1
20260510063045 41 10 13.0 21.0 0.00 1.63 0.39 98 1017.3
20260510062538 41 359 13.0 20.0 0.00 1.63 0.39 98 1017.4
20260510062039 41 359 12.0 22.0 0.00 1.63 0.39 98 1017.4
20260510061039 41 259 13.0 21.0 0.00 1.63 0.39 98 1017.1
20260510060542 41 242 13.0 22.0 0.00 1.63 0.39 98 1017.3
20260510060041 41 359 14.0 22.0 0.00 1.63 0.39 98 1017.4
20260510055538 41 245 14.0 22.0 0.00 1.63 0.39 97 1017.4
20260510055039 41 359 12.0 21.0 0.00 1.63 0.39 97 1017.1
20260510054538 41 359 12.0 21.0 0.01 1.63 0.39 97 1017.6
20260510054037 41 226 13.0 21.0 0.02 1.63 0.39 97 1017.6
20260510053537 41 13.0 20.0 0.02 1.63 0.39 97 1018.0
20260510053038 41 220 11.0 19.0 0.02 1.63 0.39 96 1017.7
20260510052538 41 359 11.0 22.0 0.02 1.63 0.39 95 1017.6
20260510052040 42 359 15.0 22.0 0.02 1.63 0.39 95 1017.4
20260510051036 41 244 12.0 21.0 0.02 1.63 0.39 96 1017.5
20260510050536 41 224 13.0 21.0 0.02 1.63 0.39 95 1017.5
20260510050038 42 234 14.0 18.0 0.02 1.65 0.39 94 1017.4
20260510045536 42 359 12.0 18.0 0.03 1.65 0.39 93 1017.6
20260510045036 42 359 12.0 18.0 0.04 1.65 0.39 90 1017.4
20260510044537 42 359 11.0 18.0 0.05 1.65 0.39 90 1017.4
20260510044036 42 359 10.0 17.0 0.03 1.64 0.38 89 1017.1
20260510043537 43 225 10.0 19.0 0.04 1.64 0.38 87 1017.8
20260510043035 43 218 11.0 19.0 0.04 1.64 0.38 86 1017.7
20260510042536 42 216 9.0 16.0 0.04 1.63 0.37 87 1017.3
20260510042033 42 359 12.0 16.0 0.05 1.63 0.37 89 1017.6
20260510041041 42 218 11.0 16.0 0.06 1.63 0.37 90 1017.6
20260510040536 42 359 9.0 15.0 0.06 1.63 0.37 89 1017.4
20260510040036 41 359 9.0 16.0 0.06 1.67 0.37 91 1017.3
20260510035535 41 188 10.0 19.0 0.06 1.67 0.37 91 1017.2
20260510035034 41 359 10.0 17.0 0.06 1.66 0.36 91 1017.3
20260510034534 41 224 12.0 17.0 0.06 1.65 0.35 93 1017.4
20260510034033 41 359 11.0 20.0 0.05 1.65 0.35 94 1017.2
20260510033532 41 216 13.0 20.0 0.04 1.64 0.34 95 1017.3
20260510033032 41 227 13.0 20.0 0.04 1.64 0.34 96 1017.3
20260510032531 41 218 13.0 20.0 0.03 1.63 0.33 97 1017.4
20260510032030 42 224 14.0 20.0 0.03 1.63 0.33 97 1017.3
20260510031028 43 359 10.0 17.0 0.02 1.61 0.31 98 1017.2
20260510030527 42 220 12.0 21.0 0.02 1.61 0.31 98 1017.3
20260510030026 41 189 12.0 21.0 0.02 1.69 0.31 98 1017.3
20260510025526 41 191 12.0 21.0 0.02 1.69 0.31 98 1017.4
20260510025025 41 359 14.0 24.0 0.03 1.69 0.31 98 1017.8
20260510024531 41 214 12.0 24.0 0.04 1.69 0.30 98 1017.8
20260510024025 41 262 11.0 18.0 0.06 1.69 0.30 98 1017.9
20260510023523 41 359 10.0 18.0 0.07 1.69 0.30 98 1017.8
20260510023024 41 232 10.0 16.0 0.09 1.69 0.30 98 1017.7
20260510022524 41 359 9.0 15.0 0.09 1.69 0.30 98 1017.8
20260510022022 41 217 9.0 15.0 0.13 1.69 0.30 98 1017.8
20260510021027 41 257 7.0 17.0 0.14 1.69 0.30 98 1017.8
20260510020524 41 248 9.0 20.0 0.13 1.68 0.28 98 1017.7
20260510020022 42 254 10.0 17.0 0.15 1.68 0.28 98 1017.7
20260510015525 42 247 10.0 17.0 0.15 1.67 0.28 98 1017.9
20260510015022 43 224 8.0 14.0 0.16 1.67 0.28 99 1017.9
20260510014527 44 359 5.0 10.0 0.15 1.66 0.28 99 1018.0
20260510014020 45 222 1.0 16.0 0.12 1.63 0.24 99 1017.6
20260510013524 44 186 9.0 23.0 0.11 1.62 0.24 98 1017.9
20260510013022 42 220 11.0 24.0 0.09 1.61 0.22 98 1017.7
20260510012520 41 180 12.0 24.0 0.09 1.60 0.21 98 1017.5
20260510012018 41 214 13.0 22.0 0.07 1.58 0.20 98 1017.5
20260510011019 41 359 11.0 19.0 0.03 1.54 0.16 98 1017.6
20260510010518 41 359 12.0 19.0 0.04 1.54 0.16 98 1017.5
20260510010019 41 193 12.0 19.0 0.03 1.54 0.15 98 1017.7
20260510005518 41 214 12.0 21.0 0.02 1.52 0.13 98 1018.0
20260510005016 41 184 11.0 24.0 0.01 1.51 0.13 98 1017.2
20260510004516 41 359 10.0 23.0 0.01 1.51 0.13 98 1017.1
20260510004020 41 359 12.0 24.0 0.02 1.51 0.13 98 1017.1
20260510003521 42 359 12.0 23.0 0.02 1.51 0.13 99 1016.9
20260510003016 42 181 11.0 21.0 0.02 1.51 0.13 99 1017.0
20260510002514 42 127 11.0 19.0 0.02 1.51 0.13 99 1017.0
20260510002014 41 182 10.0 17.0 0.02 1.51 0.13 99 1017.2
20260510001012 42 172 8.0 19.0 0.02 1.51 0.13 99 1017.2
20260510000512 42 183 11.0 20.0 0.02 1.51 0.13 99 1017.3
20260510000011 42 180 9.0 20.0 0.02 1.51 0.12 99 1017.4
20260509235511 42 359 10.0 16.0 0.02 1.51 0.12 98 1017.5
20260509235012 42 359 6.0 15.0 0.02 1.51 0.12 98 1017.0
20260509234518 42 359 6.0 17.0 0.02 1.51 0.12 98 1017.0
20260509234011 42 190 9.0 20.0 0.02 1.51 0.12 98 1017.0
20260509233509 42 179 11.0 20.0 0.02 1.50 0.11 98 1017.0
20260509233023 42 187 9.0 21.0 0.02 1.50 0.11 99 1016.9
20260509232508 42 162 8.0 23.0 0.02 1.50 0.11 99 1016.7
20260509232007 42 359 10.0 23.0 0.03 1.50 0.11 99 1016.5
20260509231006 42 359 7.0 22.0 0.04 1.50 0.11 99 1015.9
20260509230507 42 169 10.0 22.0 0.05 1.50 0.11 99 1016.0
20260509230007 41 189 7.0 22.0 0.05 1.50 0.10 98 1016.1
20260509225510 41 187 11.0 24.0 0.06 1.50 0.10 98 1016.0
20260509225005 41 238 9.0 24.0 0.06 1.50 0.10 98 1016.2
20260509224505 41 183 14.0 25.0 0.07 1.50 0.10 99 1016.3
20260509224004 42 359 13.0 25.0 0.08 1.50 0.10 99 1016.5
20260509223503 42 359 12.0 24.0 0.07 1.49 0.09 99 1016.5
20260509223001 42 206 14.0 24.0 0.08 1.49 0.09 98 1016.3
20260509222600 42 186 11.0 23.0 0.08 1.49 0.09 98 1016.1
20260509222059 42 201 11.0 23.0 0.09 1.48 0.09 98 1016.2